STARLINK-30543

decayed
NORAD ID: 57996 Int'l Des: 2023-153 Owner: SPXS Country: US Constellation: starlink
LEOCIRCULAR
Group

About STARLINK-30543

Description loading...

Altitude History

Altitude vs Time

uPlot chart will show altitude changes over time

Two-Line Element Set

1 57996U 23153F 25110.53637685 .28770667 90180-5 73402-2 0 9996
2 57996 42.9808 143.2871 0003913 133.7499 356.0268 16.27830248 89049
Epoch: Apr 20, 2025 • Age: 3392 hours

Current Status

Position data unavailable
Launch Date Oct 5, 2023
Age 1.9 years
Decay Date Apr 20, 2025
Type internet

Technical Details

Classification Payload
Mass 730.00 kg
Dry Mass 700.00 kg
Total Mass 730.00 kg
Length 0.30 m
Diameter 4.10 m
Span 29.00 m
Shape Box + pan
Manufacturer SPXS
Bus Type Starlink V2M
Phase Status Unknown Transfer Status
Owner/State SPXS/US

Large Constellations

Loading constellations...